Temperature
14 14 14 14 13 13 13 13 13 13 13 13 13 12 12 12 12 12 11 11 11 10 10 9 9 9 9 9 9 9 9 8 8 8 8 8 8 8 8 8 8 8 8
14 14 14 13 13 13 13 13 13 13 12 12 12 12 12 12 11 11 11 10 10 10 10 9 9 9 8 8 8 8 8 8 8 8 8 8 8 7 7 7 7 7 7
14 14 13 13 13 13 13 12 12 12 12 12 12 12 12 11 11 11 10 10 10 9 9 9 9 8 8 8 8 8 7 7 7 7 7 7 7 7 7 7 7 7 7
13 13 13 13 13 12 12 12 12 12 12 12 12 12 11 11 11 10 10 9 9 9 9 9 8 8 8 8 7 7 7 7 7 7 7 7 7 6 6 6 6 6 7
13 13 13 13 12 12 12 12 12 12 12 12 11 11 11 10 10 10 9 9 9 8 8 8 8 8 8 7 7 7 7 7 6 6 6 6 6 6 6 6 6 6 6
13 13 13 12 12 12 12 12 11 11 11 11 11 11 11 10 10 9 9 8 8 8 8 8 7 7 7 7 7 7 6 6 6 6 6 6 6 6 6 6 6 6 6
12 12 12 12 12 12 12 11 11 11 11 10 10 10 10 10 9 9 8 8 8 7 7 7 7 7 7 6 6 6 6 6 5 5 5 5 5 5 5 5 5 5 5
12 12 12 12 12 11 11 11 11 10 10 10 9 9 9 9 9 8 8 8 7 7 7 7 6 6 6 6 6 6 5 5 5 5 5 5 5 5 5 5 5 5 5
12 12 11 11 11 11 11 11 10 10 10 9 9 8 7 7 7 7 7 7 7 6 6 6 6 6 5 5 5 5 5 5 5 4 4 5 4 4 4 4 4 5 5
11 11 11 11 11 11 10 10 10 9 9 9 8 7 7 6 6 6 7 7 6 6 6 5 5 5 5 5 5 5 5 4 4 4 4 4 4 4 4 4 4 4 4
11 11 11 11 10 10 10 9 9 9 9 8 8 7 7 6 6 5 5 6 6 6 5 5 5 5 4 4 4 4 4 4 4 4 4 4 4 4 4 4 4 4 4
10 10 10 10 10 10 9 9 9 8 8 8 7 7 6 5 5 5 5 5 5 5 5 5 4 4 4 4 4 4 3 3 3 3 3 3 3 3 3 3 3 3 3
10 10 10 10 9 9 9 9 8 8 8 7 7 6 6 5 5 5 4 4 4 4 5 4 4 4 3 3 3 3 3 3 3 3 3 3 3 3 3 3 3 3 3
10 10 9 9 9 9 8 8 8 7 7 7 6 6 5 5 5 4 4 3 3 3 3 3 3 3 3 3 3 3 3 3 2 2 2 2 2 2 2 2 2 2 2
9 9 9 9 8 8 8 8 7 7 7 6 6 5 5 4 4 4 3 3 3 2 3 3 3 3 2 2 2 2 2 2 2 2 2 2 2 2 2 2 2 2 2
9 8 8 8 8 8 7 7 7 6 6 6 5 5 4 4 4 3 3 3 2 2 2 2 2 2 2 2 2 2 2 2 2 2 1 1 1 1 1 1 1 1 1
8 8 8 8 7 7 7 7 6 6 5 5 5 4 4 3 3 3 3 3 2 2 1 2 2 2 2 2 2 2 1 1 1 1 1 1 1 1 1 1 1 1 1
7 7 7 7 7 7 6 6 6 5 5 5 4 4 3 3 3 3 3 2 2 2 1 1 2 1 1 1 1 1 1 1 1 1 1 1 1 1 1 1 1 1 1
7 7 6 6 6 6 6 5 5 5 4 4 4 3 3 3 3 3 2 2 2 2 1 1 1 1 1 1 1 1 1 1 1 1 0 0 0 0 0 0 0 0 0
6 6 6 6 6 5 5 5 4 4 4 3 3 3 3 3 2 2 2 2 2 1 1 1 1 1 1 1 1 1 1 1 1 1 0 -0 -0 -0 -0 -0 -0 -0 -0
6 5 5 5 5 5 4 4 4 3 3 3 3 3 3 2 2 2 2 1 1 1 1 0 0 0 0 0 -0 -0 -0 0 0 0 0 0 -0 -0 -0 -0 -0 -0 -0
5 5 5 5 4 4 4 3 3 3 3 2 2 2 2 2 2 2 2 1 1 1 0 0 -0 -0 -0 -1 -1 -1 -1 -1 -1 -0 -0 -0 -0 -1 -1 -1 -1 -1 -1
4 4 4 4 4 3 3 3 2 2 2 2 2 2 2 2 1 1 1 1 1 0 0 -0 -0 -1 -1 -1 -1 -1 -1 -1 -1 -1 -1 -1 -0 -1 -1 -1 -1 -1 -1
4 4 3 3 3 3 2 2 2 2 2 2 1 1 1 1 1 1 1 0 0 0 -0 -0 -1 -1 -1 -1 -1 -2 -2 -2 -1 -1 -2 -2 -1 -1 -1 -1 -1 -1 -1
3 3 3 3 2 2 2 2 1 1 1 1 1 1 1 0 0 0 0 0 0 0 -0 -0 -1 -1 -1 -1 -2 -2 -2 -2 -2 -1 -2 -2 -2 -2 -1 -1 -1 -1 -1
2 2 2 2 2 2 1 1 1 1 1 1 1 0 0 0 0 -0 -0 -0 -0 -0 -0 -0 -0 -1 -1 -1 -1 -2 -2 -2 -3 -3 -2 -3 -3 -3 -2 -2 -1 -1 -1
Wind_Speed
7 7 6 7 6 6 6 6 6 6 6 6 6 6 5 6 6 7 7 8 9 9 10 10 10 11 11 11 12 12 13 13 14 14 15 15 15 16 16 16 16 16 17
9 7 6 5 5 5 6 6 5 5 4 5 4 5 4 4 5 5 6 7 8 9 10 10 11 11 12 12 12 13 14 14 15 15 15 16 16 16 17 17 17 17 18
10 8 6 4 5 6 6 6 6 5 4 4 3 3 3 3 4 4 4 5 6 8 9 11 11 12 13 13 13 14 14 15 15 16 16 16 17 17 18 18 18 18 18
11 9 6 4 5 6 5 4 3 3 3 3 2 2 2 2 3 3 4 4 5 5 8 10 12 13 13 13 14 15 15 15 16 16 17 17 17 18 18 19 19 19 19
11 9 6 5 6 6 4 3 2 2 2 3 2 2 2 1 1 2 3 3 4 5 7 9 11 12 13 14 15 16 16 17 17 17 18 18 18 18 19 19 19 20 20
10 9 7 6 6 5 3 3 2 3 2 2 2 3 3 2 1 1 2 3 4 5 7 8 9 10 13 15 16 16 17 18 18 18 19 19 19 19 20 20 20 20 21
9 8 6 5 5 3 3 3 2 3 2 2 2 3 3 3 2 2 2 2 3 5 8 8 9 9 10 13 15 17 18 19 19 20 19 19 20 20 20 21 21 21 21
9 8 6 5 4 3 3 3 3 2 2 3 2 1 3 4 3 3 3 2 3 5 6 8 8 9 10 10 13 17 19 19 20 20 20 21 21 21 21 22 22 22 22
8 8 7 6 4 4 3 2 2 3 1 1 2 2 1 2 4 3 3 3 3 4 5 7 8 9 10 11 12 15 18 20 20 20 21 21 22 21 22 22 22 22 22
7 7 7 7 5 4 3 2 2 2 3 1 1 1 1 1 1 4 4 3 5 4 4 6 7 8 10 11 13 17 19 20 20 21 22 22 22 22 22 22 22 22 22
5 6 7 6 5 3 3 3 2 2 2 2 1 0 1 1 0 1 5 6 5 4 4 5 4 6 9 11 13 16 19 20 20 21 21 21 22 22 22 22 22 22 22
3 4 6 5 4 3 3 3 2 3 2 1 1 1 1 0 1 1 4 7 7 6 6 4 4 6 9 11 14 19 20 20 20 21 21 21 21 21 22 22 22 22 22
2 3 3 4 3 3 3 3 3 2 2 2 1 1 1 1 1 2 3 5 7 6 4 3 4 6 10 12 14 19 19 20 21 21 21 20 20 21 21 21 21 22 22
4 4 4 4 4 4 3 3 2 2 1 1 1 0 1 1 1 2 2 3 6 6 5 6 4 6 10 13 16 19 17 20 21 20 20 20 19 20 20 20 21 21 21
4 5 5 4 3 3 3 3 2 2 1 1 1 1 1 1 1 2 2 2 3 6 8 6 4 6 11 13 16 16 16 19 20 20 20 19 19 19 20 20 20 20 20
4 5 4 3 3 3 3 3 2 2 1 1 1 1 1 2 2 2 2 3 3 4 7 6 6 8 10 13 17 16 16 20 19 20 20 19 19 19 19 20 20 20 20
5 5 4 4 3 3 2 3 2 2 2 1 1 1 2 2 2 2 2 3 3 4 7 8 6 7 8 10 13 14 15 14 15 18 19 19 19 19 19 19 19 19 20
5 5 4 4 3 3 3 3 3 3 3 2 2 2 3 2 3 3 3 4 4 4 6 10 9 7 8 9 10 11 12 13 13 17 18 18 18 18 19 19 19 19 19
5 4 4 4 3 3 3 3 4 4 4 3 3 3 3 3 4 4 4 4 4 5 5 7 9 8 7 8 9 10 10 9 12 14 16 16 17 18 18 19 19 19 19
5 4 4 3 3 3 3 3 3 3 3 3 3 3 3 4 4 4 4 4 4 5 5 6 8 8 7 7 7 8 10 8 9 10 13 15 16 18 18 18 18 18 18
4 4 3 3 2 2 3 3 3 3 3 2 2 3 4 5 5 5 4 4 4 4 5 6 7 7 7 8 8 7 9 10 9 5 8 9 10 10 12 15 16 17 18
3 3 3 3 2 2 3 2 1 2 2 2 3 3 4 4 6 7 8 8 7 6 6 6 6 8 9 8 7 8 8 9 8 5 7 9 7 7 8 10 15 17 17
3 3 3 3 2 3 2 3 2 1 2 3 2 3 4 5 6 5 7 8 8 9 8 6 7 8 8 8 8 9 8 8 8 8 7 7 6 7 9 12 15 16 17
3 2 2 2 2 2 2 2 1 1 2 2 3 3 4 4 6 6 5 5 6 6 8 6 6 7 7 7 7 7 8 8 8 6 4 5 6 6 9 10 13 15 17
2 2 2 1 1 2 2 1 1 1 1 2 3 3 3 4 8 8 5 5 7 7 8 9 10 10 12 12 10 6 6 7 8 6 3 3 5 7 6 5 9 15 16
2 2 1 1 0 1 2 1 1 1 1 2 2 3 5 6 8 7 4 4 6 7 7 7 8 9 9 9 10 5 5 6 6 5 3 4 5 6 5 4 5 9 11
Wind_Direction
115 107 99 93 86 83 82 78 73 67 64 65 63 65 59 56 57 53 43 37 30 24 19 13 6 2 359 356 354 353 349 346 342 338 336 333 330 327 325 321 318 315 312
123 114 102 93 87 88 91 91 80 73 64 62 58 59 62 57 58 53 48 39 29 22 16 9 2 358 354 351 350 348 345 342 339 337 334 332 328 326 324 321 317 313 310
127 120 109 97 92 92 89 86 73 68 59 51 41 41 51 52 61 55 47 41 30 21 16 8 1 357 352 348 345 343 340 337 336 335 332 329 326 323 321 320 318 314 311
130 119 109 101 100 94 86 80 69 58 43 34 15 359 24 39 56 54 49 37 28 21 13 4 360 355 351 346 343 340 337 334 333 332 330 327 325 322 320 318 317 315 313
131 122 114 107 103 90 78 71 56 66 45 21 2 357 359 12 19 46 38 30 18 13 8 358 353 351 348 344 341 338 336 333 331 330 328 326 324 322 320 318 317 315 313
131 125 116 109 105 92 76 72 65 48 48 9 2 355 337 330 340 6 4 11 5 2 359 353 346 341 343 343 340 337 334 332 330 328 327 325 323 321 320 318 317 315 313
133 126 119 110 106 106 111 100 78 60 31 14 35 357 337 330 328 322 328 331 344 351 351 347 344 340 338 339 339 336 333 331 329 327 326 325 323 321 320 319 317 316 314
136 135 126 121 115 111 101 93 85 77 35 34 65 41 348 336 334 322 310 303 323 344 344 342 340 339 339 340 335 334 331 329 327 325 325 325 323 321 320 319 318 317 315
138 135 132 125 116 118 128 121 114 107 103 23 52 103 102 275 306 305 297 306 322 332 328 332 335 338 338 338 333 331 331 329 327 326 325 324 323 322 321 320 319 318 317
135 135 132 126 118 115 125 131 108 112 123 116 18 41 150 193 260 310 309 312 318 315 311 321 327 332 333 336 332 331 331 329 327 327 326 324 323 322 321 321 322 321 320
130 137 134 127 120 118 120 116 110 108 121 148 159 162 35 9 272 260 301 314 317 302 303 305 311 327 332 334 333 330 331 330 328 327 326 326 325 325 324 324 323 323 323
128 131 134 128 127 123 127 128 119 118 131 135 147 163 182 214 296 285 288 304 308 305 305 300 304 322 330 333 331 331 331 329 328 327 327 326 325 325 325 324 323 324 324
169 170 139 136 133 132 131 124 119 128 147 147 173 212 239 259 261 267 283 298 304 305 305 300 298 318 328 331 329 328 327 326 325 325 326 325 324 325 324 323 323 323 323
177 160 147 138 137 135 131 119 116 141 129 163 186 217 284 284 276 264 263 295 311 308 306 297 305 309 327 327 325 326 325 324 324 324 324 324 324 324 323 323 323 323 323
154 146 144 140 139 140 137 131 147 162 142 174 202 226 267 278 288 281 271 268 282 303 303 299 307 313 322 323 323 327 324 321 323 323 323 323 323 323 323 323 322 323 322
150 147 150 150 146 143 142 139 149 150 154 209 216 228 263 279 290 289 283 283 268 271 287 292 297 304 314 319 322 326 321 321 321 322 323 324 324 324 324 323 323 324 323
157 161 164 161 163 161 159 164 181 176 186 227 243 245 268 280 286 292 295 290 281 275 285 297 297 305 308 314 320 322 321 319 319 321 322 324 324 324 324 324 323 323 323
163 162 159 165 173 175 181 186 197 200 201 217 240 255 275 287 284 288 285 284 284 281 286 300 307 311 308 312 314 316 321 322 318 318 323 322 324 325 325 324 323 324 324
161 159 159 174 184 190 198 207 206 209 213 224 234 245 263 271 278 287 284 284 288 297 294 299 305 308 309 314 318 316 317 318 320 321 324 322 323 324 324 324 325 325 325
163 167 173 179 184 192 204 217 213 216 225 236 244 249 254 255 261 273 281 285 297 303 306 305 306 310 311 313 319 322 324 325 319 319 323 321 320 323 323 323 323 325 326
161 163 167 174 180 191 210 214 212 220 227 247 268 271 271 280 287 289 297 297 299 301 308 309 309 314 317 325 324 319 318 320 312 310 318 315 315 315 319 320 322 325 329
152 154 168 176 187 211 228 223 245 219 231 254 279 288 291 285 296 304 307 306 307 306 305 304 305 310 310 312 313 315 317 324 318 320 321 312 312 310 314 316 324 330 334
153 163 174 178 204 232 226 227 252 223 243 249 263 284 299 305 309 294 302 311 309 308 305 299 296 299 303 307 311 314 316 314 305 307 316 306 312 309 313 318 327 335 337
158 169 177 189 209 237 238 236 257 213 253 256 260 263 277 294 303 307 309 309 304 303 300 298 288 293 298 304 303 302 301 304 297 295 304 301 312 310 312 314 325 337 341
143 152 169 168 192 257 260 254 327 219 267 282 284 287 289 286 306 321 320 310 312 312 313 313 312 311 314 318 322 322 321 322 317 311 314 307 311 314 308 303 321 337 342
127 121 99 86 351 284 313 314 332 220 268 290 298 298 308 312 313 321 314 307 309 312 321 326 324 321 320 318 323 316 306 311 314 309 318 323 312 323 318 306 314 331 338
Height
1552 1553 1553 1554 1554 1554 1554 1553 1553 1553 1552 1552 1551 1550 1549 1547 1546 1545 1543 1541 1539 1537 1536 1534 1532 1530 1527 1525 1523 1520 1518 1515 1513 1510 1508 1505 1503 1500 1498 1496 1493 1491 1489
1552 1552 1553 1553 1553 1553 1553 1553 1552 1552 1551 1551 1550 1549 1548 1546 1545 1544 1542 1540 1538 1536 1534 1532 1530 1528 1525 1523 1520 1518 1515 1513 1510 1508 1505 1502 1499 1497 1495 1492 1490 1487 1485
1551 1551 1552 1552 1552 1552 1552 1552 1551 1551 1550 1550 1549 1548 1547 1546 1544 1543 1541 1539 1537 1535 1533 1531 1528 1526 1523 1521 1518 1515 1513 1510 1507 1505 1502 1499 1496 1493 1491 1488 1486 1483 1481
1550 1551 1551 1551 1551 1551 1551 1551 1550 1550 1549 1548 1547 1546 1545 1544 1543 1541 1540 1538 1536 1534 1532 1529 1526 1524 1521 1518 1516 1513 1510 1507 1504 1501 1498 1495 1493 1490 1487 1484 1482 1479 1476
1549 1550 1550 1550 1550 1550 1550 1550 1549 1548 1547 1547 1546 1545 1544 1543 1541 1540 1539 1537 1535 1532 1530 1527 1525 1522 1519 1516 1513 1510 1507 1504 1501 1498 1495 1492 1489 1486 1483 1480 1477 1474 1471
1548 1549 1549 1549 1549 1549 1549 1548 1548 1547 1546 1545 1544 1543 1542 1541 1540 1538 1537 1535 1533 1531 1528 1525 1522 1519 1516 1513 1510 1507 1504 1501 1498 1495 1492 1489 1485 1482 1479 1476 1473 1470 1467
1547 1547 1547 1547 1547 1547 1547 1547 1546 1545 1544 1543 1542 1541 1540 1539 1538 1537 1535 1533 1531 1529 1526 1523 1520 1517 1514 1510 1507 1504 1500 1497 1494 1491 1488 1485 1481 1478 1475 1472 1468 1465 1462
1545 1546 1546 1546 1546 1546 1545 1545 1544 1543 1543 1542 1541 1539 1537 1537 1535 1534 1532 1530 1529 1527 1524 1521 1518 1514 1511 1507 1504 1501 1497 1494 1491 1487 1484 1481 1477 1474 1471 1467 1464 1460 1457
1543 1544 1544 1544 1544 1544 1543 1543 1543 1542 1541 1541 1540 1539 1537 1534 1532 1530 1529 1528 1526 1524 1521 1518 1515 1512 1508 1504 1501 1497 1493 1490 1487 1483 1480 1477 1473 1470 1466 1463 1459 1455 1452
1541 1542 1542 1542 1542 1542 1542 1541 1541 1540 1540 1539 1538 1538 1537 1535 1533 1528 1526 1525 1523 1521 1518 1515 1512 1509 1505 1501 1498 1494 1490 1486 1483 1479 1476 1472 1469 1465 1462 1458 1454 1451 1447
1539 1539 1540 1540 1540 1540 1540 1539 1539 1538 1538 1537 1536 1535 1534 1533 1532 1529 1524 1521 1519 1517 1515 1512 1509 1505 1502 1498 1494 1490 1486 1482 1479 1475 1471 1468 1464 1461 1457 1454 1450 1446 1442
1536 1537 1538 1538 1538 1538 1538 1537 1537 1536 1536 1535 1534 1533 1532 1531 1529 1527 1523 1519 1515 1513 1511 1509 1506 1502 1498 1495 1491 1487 1483 1478 1474 1471 1467 1463 1460 1456 1453 1449 1445 1441 1438
1533 1534 1534 1535 1535 1535 1536 1535 1535 1534 1534 1533 1532 1531 1530 1529 1527 1525 1522 1518 1513 1509 1507 1505 1502 1499 1495 1491 1487 1483 1478 1474 1470 1466 1463 1459 1455 1452 1448 1444 1440 1437 1433
1530 1531 1532 1532 1533 1533 1533 1533 1532 1532 1531 1530 1529 1528 1527 1526 1525 1523 1520 1517 1511 1507 1504 1501 1499 1496 1492 1488 1483 1479 1474 1470 1466 1462 1458 1454 1451 1447 1444 1440 1436 1432 1428
1527 1528 1529 1529 1530 1530 1530 1530 1529 1529 1528 1527 1527 1525 1524 1523 1522 1520 1518 1516 1513 1506 1500 1497 1495 1492 1488 1484 1480 1475 1470 1466 1462 1457 1454 1450 1446 1443 1439 1435 1431 1428 1423
1524 1524 1525 1526 1526 1527 1527 1527 1526 1526 1525 1524 1523 1522 1521 1520 1518 1517 1515 1512 1510 1506 1500 1495 1492 1489 1485 1481 1476 1472 1467 1462 1457 1453 1449 1445 1442 1438 1434 1431 1427 1423 1419
1520 1521 1522 1522 1523 1523 1523 1523 1523 1522 1522 1521 1520 1519 1518 1517 1515 1513 1511 1509 1506 1503 1498 1492 1490 1486 1481 1477 1472 1468 1463 1458 1453 1449 1445 1441 1437 1434 1430 1426 1422 1418 1415
1517 1518 1518 1519 1519 1520 1520 1520 1519 1519 1518 1517 1517 1516 1514 1513 1512 1510 1508 1505 1502 1499 1495 1489 1485 1482 1478 1473 1469 1464 1459 1454 1449 1445 1441 1437 1433 1429 1426 1422 1418 1414 1410
1513 1514 1515 1515 1516 1516 1516 1516 1516 1515 1515 1514 1513 1512 1511 1510 1508 1506 1504 1502 1499 1496 1492 1487 1482 1478 1474 1470 1465 1460 1455 1450 1446 1441 1437 1433 1429 1425 1421 1418 1414 1410 1406
1509 1510 1511 1512 1512 1512 1513 1513 1512 1512 1511 1511 1510 1509 1507 1506 1504 1503 1500 1498 1495 1492 1488 1484 1479 1475 1471 1466 1462 1456 1450 1446 1442 1438 1434 1430 1426 1422 1418 1414 1410 1406 1403
1506 1507 1508 1508 1509 1509 1509 1509 1509 1508 1507 1507 1506 1505 1504 1503 1501 1500 1497 1494 1491 1488 1484 1480 1476 1471 1467 1463 1459 1454 1449 1443 1439 1435 1430 1426 1422 1418 1414 1410 1406 1403 1399
1502 1503 1504 1504 1505 1505 1505 1505 1506 1505 1504 1503 1502 1501 1500 1499 1497 1496 1494 1491 1489 1485 1481 1478 1473 1469 1465 1461 1457 1452 1447 1441 1435 1432 1427 1423 1420 1415 1411 1407 1404 1400 1397
1499 1499 1500 1500 1501 1501 1502 1502 1502 1501 1501 1500 1498 1497 1496 1495 1493 1491 1489 1487 1485 1482 1479 1476 1471 1467 1463 1459 1454 1449 1445 1440 1435 1430 1425 1420 1417 1413 1409 1405 1402 1398 1394
1495 1496 1496 1497 1497 1498 1498 1498 1498 1498 1497 1496 1495 1494 1493 1491 1489 1487 1485 1483 1480 1478 1475 1472 1468 1465 1461 1457 1453 1448 1443 1438 1433 1429 1424 1419 1414 1411 1407 1403 1400 1396 1392
1492 1493 1493 1494 1494 1494 1495 1495 1495 1494 1493 1492 1491 1490 1489 1487 1486 1484 1482 1479 1476 1474 1471 1468 1465 1462 1458 1454 1450 1445 1440 1435 1429 1425 1423 1418 1413 1408 1404 1402 1398 1395 1391
1489 1490 1490 1491 1491 1491 1491 1491 1491 1490 1489 1488 1488 1487 1485 1484 1482 1481 1478 1475 1472 1470 1467 1464 1461 1458 1455 1451 1447 1443 1439 1434 1429 1424 1421 1417 1413 1408 1403 1399 1397 1393 1390